Weather History for Naha City, Japan

Change the Weather History Date:

Monday, November 26, 2012

  Actual Average Record
Temperature  
Mean Temperature 70 °F -  
Max Temperature 77 °F 70 °F 82 °F (2006)
Min Temperature 64 °F 62 °F 62 °F (2002)
Cooling Degree Days 6    
Growing Degree Days 20 (Base 50)    
Moisture  
Dew Point 63 °F    
Average Humidity 80    
Maximum Humidity 94    
Minimum Humidity 68    
Precipitation  
Precipitation 0.00 in - - ()
Sea Level Pressure  
Sea Level Pressure 29.94 in    
Wind  
Wind Speed 16 mph ()    
Max Wind Speed 30 mph    
Max Gust Speed 41 mph    
Visibility 5.6 miles    
Events Rain    
Averages and records for this station are not official NWS values.
T = Trace of Precipitation, MM = Missing Value Source: Averaged Metar Reports

Daily Weather History Graph

Daily Weather History Graph

Search for Another Location

Airport:

Trip Planner

Search our weather history database for the weather conditions in past years. The results will help you decide how hot, cold, wet, or windy it might be!

Date:

Astronomy

Nov. 26, 2012 Rise Set
Actual Time 6:56 AM JST 5:37 PM JST
Civil Twilight 6:31 AM JST 6:02 PM JST
Nautical Twilight 6:02 AM JST 6:30 PM JST
Astronomical Twilight 5:35 AM JST 6:58 PM JST
Moon 4:00 PM JST (11/26) 4:41 AM JST (11/26)
Length of Visible Light 11h 30m
Length of Day
10h 41m
Waxing Gibbous, 95% of the Moon is Illuminated
Nov 26
Waxing Gibbous
Nov 28
Full
Dec 7
Last Quarter
Dec 13
New
Dec 20
First Quarter

Hourly Weather History & Observations

Time (JST) Temp. Dew Point Humidity Pressure Visibility Wind Dir Wind Speed Gust Speed Precip Events Conditions
12:00 AM 69.8 °F 59.0 °F 68% 30.01 in 6.2 mi South 11.5 mph - N/A   Scattered Clouds
12:30 AM 71.6 °F 60.8 °F 69% 29.98 in 6.2 mi South 13.8 mph - N/A   Partly Cloudy
1:00 AM 69.8 °F 60.8 °F 73% 29.98 in 6.2 mi SSE 11.5 mph - N/A   Partly Cloudy
1:30 AM 69.8 °F 60.8 °F 73% 29.98 in 6.2 mi South 10.4 mph - N/A   Partly Cloudy
2:00 AM 71.6 °F 62.6 °F 73% 29.98 in 6.2 mi South 15.0 mph - N/A   Mostly Cloudy
2:30 AM 71.6 °F 62.6 °F 73% 29.95 in 6.2 mi South 13.8 mph - N/A   Mostly Cloudy
3:00 AM 71.6 °F 62.6 °F 73% 29.95 in 6.2 mi South 15.0 mph - N/A   Mostly Cloudy
3:30 AM 71.6 °F 62.6 °F 73% 29.92 in 6.2 mi South 15.0 mph - N/A   Mostly Cloudy
4:00 AM 71.6 °F 64.4 °F 78% 29.92 in 6.2 mi South 12.7 mph - N/A   Mostly Cloudy
4:30 AM 73.4 °F 64.4 °F 73% 29.92 in 6.2 mi South 15.0 mph - N/A   Mostly Cloudy
5:00 AM 73.4 °F 64.4 °F 73% 29.89 in 6.2 mi South 17.3 mph - N/A   Mostly Cloudy
5:30 AM 73.4 °F 64.4 °F 73% 29.92 in 6.2 mi SSW 17.3 mph - N/A   Mostly Cloudy
6:00 AM 73.4 °F 66.2 °F 78% 29.92 in 6.2 mi SSW 18.4 mph - N/A   Mostly Cloudy
6:30 AM 73.4 °F 66.2 °F 78% 29.92 in 6.2 mi SSW 17.3 mph - N/A   Mostly Cloudy
7:00 AM 73.4 °F 66.2 °F 78% 29.92 in 6.2 mi SSW 18.4 mph - N/A   Mostly Cloudy
7:30 AM 73.4 °F 66.2 °F 78% 29.92 in 6.2 mi SSW 17.3 mph - N/A   Mostly Cloudy
8:00 AM 75.2 °F 66.2 °F 73% 29.92 in 6.2 mi SSW 18.4 mph - N/A   Mostly Cloudy
8:30 AM 75.2 °F 66.2 °F 73% 29.92 in 6.2 mi SSW 19.6 mph - N/A   Mostly Cloudy
9:00 AM 75.2 °F 68.0 °F 78% 29.92 in 6.2 mi South 19.6 mph - N/A   Mostly Cloudy
9:30 AM 77.0 °F 68.0 °F 74% 29.92 in 6.2 mi South 19.6 mph - N/A   Mostly Cloudy
10:00 AM 75.2 °F 68.0 °F 78% 29.92 in 6.2 mi South 20.7 mph - N/A   Mostly Cloudy
10:30 AM 75.2 °F 68.0 °F 78% 29.92 in 6.2 mi South 17.3 mph - N/A   Mostly Cloudy
11:00 AM 75.2 °F 66.2 °F 73% 29.92 in 6.2 mi SSW 19.6 mph - N/A   Mostly Cloudy
11:30 AM 75.2 °F 68.0 °F 78% 29.89 in 6.2 mi SSW 19.6 mph - N/A Rain Heavy Rain Showers
11:45 AM 75.2 °F 69.8 °F 83% 29.89 in 1.2 mi SSW 19.6 mph - N/A Rain Heavy Rain Showers
12:00 PM 71.6 °F 68.0 °F 88% 29.89 in 1.9 mi West 16.1 mph - N/A Rain Rain Showers
12:05 PM 69.8 °F 66.2 °F 88% 29.89 in 3.7 mi NW 18.4 mph 32.2 mph N/A Rain Light Rain Showers
12:15 PM 69.8 °F 66.2 °F 88% 29.89 in 5.0 mi North 29.9 mph 41.4 mph N/A Rain Light Rain Showers
12:30 PM 69.8 °F 66.2 °F 88% 29.92 in 3.7 mi North 26.5 mph - N/A Rain Rain Showers
12:36 PM 68.0 °F 66.2 °F 94% 29.92 in 1.9 mi North 26.5 mph - N/A Rain Rain Showers
1:00 PM 68.0 °F 64.4 °F 88% 29.89 in 4.3 mi North 29.9 mph - N/A Rain Light Rain Showers
1:30 PM 68.0 °F 64.4 °F 88% 29.92 in 6.2 mi North 25.3 mph - N/A Rain Light Rain Showers
2:00 PM 66.2 °F 64.4 °F 94% 29.92 in 5.0 mi North 25.3 mph - N/A Rain Light Rain Showers
2:30 PM 68.0 °F 64.4 °F 88% 29.89 in 6.2 mi North 26.5 mph - N/A Rain Light Rain Showers
3:00 PM 68.0 °F 62.6 °F 83% 29.92 in 6.2 mi North 25.3 mph - N/A   Mostly Cloudy
3:30 PM 66.2 °F 62.6 °F 88% 29.92 in 6.2 mi North 26.5 mph - N/A Rain Light Rain Showers
4:00 PM 66.2 °F 62.6 °F 88% 29.92 in 6.2 mi North 25.3 mph - N/A Rain Light Rain Showers
4:30 PM 66.2 °F 62.6 °F 88% 29.95 in 6.2 mi North 23.0 mph - N/A Rain Light Rain Showers
5:00 PM 66.2 °F 60.8 °F 83% 29.95 in 6.2 mi North 25.3 mph - N/A Rain Light Rain Showers
5:30 PM 66.2 °F 60.8 °F 83% 29.95 in 6.2 mi North 25.3 mph - N/A Rain Light Rain
6:00 PM 64.4 °F 60.8 °F 88% 29.95 in 2.2 mi North 24.2 mph - N/A Rain Rain Showers
6:30 PM 64.4 °F 60.8 °F 88% 29.98 in 2.5 mi North 19.6 mph - N/A Rain Rain Showers
7:00 PM 64.4 °F 60.8 °F 88% 29.98 in 5.0 mi North 18.4 mph - N/A Rain Light Rain Showers
7:30 PM 64.4 °F 59.0 °F 83% 30.01 in 6.2 mi North 20.7 mph - N/A Rain Light Rain Showers
8:00 PM 64.4 °F 59.0 °F 83% 30.01 in 6.2 mi North 19.6 mph - N/A Rain Light Rain Showers
8:30 PM 66.2 °F 57.2 °F 73% 30.01 in 6.2 mi North 18.4 mph - N/A Rain Light Rain Showers
9:00 PM 66.2 °F 57.2 °F 73% 30.01 in 6.2 mi North 20.7 mph - N/A Rain Light Rain Showers
9:30 PM 64.4 °F 57.2 °F 77% 30.04 in 6.2 mi North 19.6 mph - N/A Rain Light Rain Showers
10:00 PM 66.2 °F 59.0 °F 78% 30.01 in 6.2 mi North 19.6 mph - N/A   Mostly Cloudy
10:30 PM 64.4 °F 59.0 °F 83% 30.04 in 6.2 mi NNE 17.3 mph - N/A Rain Light Rain Showers
11:00 PM 66.2 °F 57.2 °F 73% 30.01 in 6.2 mi NNE 12.7 mph - N/A   Mostly Cloudy
11:30 PM 66.2 °F 59.0 °F 78% 30.01 in 6.2 mi NE 9.2 mph - N/A   Mostly Cloudy